Dewpoint
42 46 47 47 48 48 48 49 50 50 51 52 53 53 54 55 58 58 59 59 58 56 56 55 53 49 49
39 44 45 46 46 46 46 46 47 49 50 50 52 53 53 54 55 56 58 58 57 56 56 54 50 49 48
37 43 43 44 43 43 43 44 43 45 47 51 52 53 53 53 54 55 56 56 56 55 53 51 50 48 47
35 38 41 42 43 42 41 40 41 41 42 42 46 47 50 51 54 54 55 55 54 53 51 50 49 48 46
35 38 40 40 42 41 39 39 38 38 38 37 41 43 45 47 50 53 53 53 51 50 49 48 47 45 44
33 36 37 40 41 41 38 38 38 38 37 36 38 40 43 45 47 48 49 48 47 46 45 44 43 42 39
32 34 36 39 41 39 38 39 38 36 36 34 34 38 42 43 44 44 45 44 44 44 43 41 39 37 35
35 35 36 37 40 41 39 35 34 34 35 32 32 33 39 42 43 43 42 42 41 41 40 38 35 32 30
34 36 38 38 41 38 36 35 32 33 32 32 31 31 32 34 40 40 40 40 39 37 35 33 30 29 27
32 34 36 37 39 40 37 37 32 32 32 30 30 31 29 31 34 37 37 36 35 34 31 29 29 23 23
32 31 32 34 37 40 39 39 35 34 33 32 30 30 28 28 30 33 34 33 30 29 28 28 25 23 23
32 32 33 33 37 40 39 40 37 36 34 32 32 29 27 27 27 29 27 25 23 21 23 25 26 26 24
33 33 34 35 35 34 33 34 34 35 34 33 33 30 29 28 27 27 26 23 20 20 20 17 19 21 22
34 34 33 33 32 32 32 32 30 28 31 33 32 31 29 28 28 27 24 23 20 19 18 20 21 20 20
33 31 31 31 31 32 31 31 29 27 25 27 28 28 29 29 27 25 23 22 19 18 17 18 19 18 18
33 31 30 30 29 31 31 30 28 26 24 26 26 25 24 24 26 22 21 20 18 17 17 16 17 19 20
32 31 30 29 29 29 28 27 25 25 25 26 28 27 24 17 20 24 18 18 18 17 16 14 15 19 20
Wind_Speed
12 5 3 1 3 4 5 4 3 6 6 4 4 4 5 10 15 19 18 34 36 36 34 35 34 31 28
12 9 5 1 0 3 5 7 7 9 5 8 7 8 5 6 12 13 25 36 39 37 36 35 35 30 27
9 5 3 3 2 1 6 8 8 13 14 11 2 5 7 8 11 14 24 39 39 39 39 35 32 30 27
11 10 6 3 4 2 5 7 6 7 13 16 16 18 16 6 10 19 30 33 38 39 37 33 31 29 26
10 6 7 4 9 5 4 6 6 6 10 15 11 14 16 15 9 15 30 37 40 40 37 35 29 26 22
10 7 5 3 6 10 10 7 5 3 7 13 11 17 15 18 24 32 30 37 39 37 34 32 27 23 21
15 11 6 2 3 10 9 6 6 7 10 12 11 16 11 18 28 30 30 32 33 31 30 29 25 22 20
13 13 10 7 6 6 7 10 12 8 5 7 7 12 11 15 22 25 26 28 28 28 25 24 22 19 17
16 13 12 13 10 8 11 15 7 3 2 8 4 9 11 11 12 20 23 25 25 25 23 21 19 17 13
14 16 14 10 9 14 15 15 11 5 7 7 12 7 6 5 8 8 16 21 21 21 20 19 18 13 10
15 14 13 11 11 14 14 16 14 5 14 12 10 7 5 8 3 6 12 13 13 14 16 16 14 12 11
13 14 12 13 13 13 14 10 5 4 26 11 14 12 10 7 8 5 10 11 12 12 11 13 12 11 9
14 13 12 12 10 10 11 14 13 11 16 5 16 18 11 16 15 11 14 7 9 11 10 8 6 5 10
13 10 10 11 11 11 13 16 13 13 12 10 16 15 10 14 19 20 12 10 11 10 10 8 7 6 6
12 13 12 12 9 10 13 14 13 15 11 14 20 21 17 12 13 15 15 11 11 13 9 10 6 5 5
15 15 14 14 13 12 12 12 19 18 18 17 23 21 12 17 12 17 12 12 10 10 11 10 6 2 4
16 16 16 15 17 15 14 17 16 16 16 16 18 21 18 10 4 7 15 11 11 10 8 4 7 6 6
Wind_Direction
302 264 284 303 20 45 32 38 18 329 316 282 226 225 178 195 193 203 190 186 178 177 181 175 168 156 152
293 296 236 199 85 83 72 48 37 2 303 265 246 250 239 222 225 215 203 188 168 174 173 169 159 157 155
291 328 293 125 96 299 74 62 36 31 27 20 341 306 299 270 236 212 188 170 171 164 160 158 155 154 154
263 261 260 220 146 181 95 69 50 29 44 29 40 49 44 24 238 215 188 169 160 151 145 146 147 149 155
256 278 214 211 185 186 122 118 62 35 60 29 12 41 33 32 33 168 171 155 143 139 142 139 138 145 148
257 247 278 265 176 168 154 155 134 22 75 50 16 55 48 59 76 93 112 121 120 120 126 128 131 140 141
242 243 251 269 233 180 174 158 123 124 103 67 12 66 54 74 81 88 99 105 115 120 127 129 135 134 136
243 245 239 235 256 231 190 114 98 96 92 103 17 59 57 81 94 104 109 111 115 120 128 127 129 133 138
250 243 234 228 218 159 160 147 125 134 71 114 119 83 57 49 94 109 113 118 122 125 124 127 131 134 126
239 245 246 243 248 207 181 173 133 136 190 104 141 142 87 16 58 93 117 124 125 126 132 137 131 120 122
227 232 226 221 216 220 198 181 168 149 172 124 163 138 101 132 84 76 122 123 122 127 134 135 135 143 136
221 224 215 217 213 212 196 188 170 193 163 149 156 161 135 123 143 126 105 112 118 116 118 133 133 129 129
216 217 204 206 169 136 120 110 85 113 150 147 152 152 147 147 148 153 138 148 140 130 124 124 126 129 133
210 199 175 161 162 153 147 135 117 91 68 100 128 136 118 122 147 154 143 156 150 131 123 114 109 117 132
177 169 165 158 159 157 150 146 142 142 117 91 87 85 76 119 126 144 133 127 136 135 122 118 106 119 132
171 167 163 160 156 153 153 148 145 141 131 136 124 109 93 54 68 127 111 131 135 130 133 127 131 122 123
169 166 160 158 156 153 144 134 132 136 143 151 152 145 140 131 76 60 127 131 128 126 136 125 145 144 119